EHI
0 0 0 0 0 0 0 0 0 0 0 0 0 0 0 0 0 0 1 2 4 6 4 2 1 0 0 0 0 0 0 0 0 0 0 0 0 0 0 0 0 0 0
0 0 0 0 0 0 0 0 0 0 0 0 0 0 0 0 0 0 0 1 3 5 4 2 0 0 0 0 0 0 0 0 0 0 0 0 0 0 0 0 0 0 0
0 0 0 0 0 0 0 0 0 0 0 0 0 0 0 0 0 0 0 0 1 2 4 3 1 0 0 0 0 0 0 0 0 0 0 0 0 0 0 0 0 0 0
0 0 0 0 0 0 0 0 0 0 0 0 0 0 0 0 0 0 0 0 0 1 2 2 1 0 0 0 0 0 0 0 0 0 0 0 0 0 0 0 0 0 0
0 0 0 0 0 0 0 0 0 0 0 0 0 0 0 0 0 0 0 0 0 0 0 1 1 1 1 1 0 0 0 0 0 0 0 0 0 0 0 0 0 0 0
1 0 0 0 0 0 0 0 0 0 0 0 0 0 0 0 0 0 0 0 0 0 0 0 1 1 2 3 2 1 0 0 0 0 0 0 0 0 0 0 0 0 0
1 0 0 0 0 0 0 0 0 0 0 0 0 0 0 0 0 0 0 0 0 0 0 0 0 1 2 3 3 1 1 0 0 1 1 0 0 0 0 0 0 0 0
1 0 0 0 0 0 0 0 0 0 0 0 0 0 0 0 0 0 0 0 0 0 0 0 0 0 1 1 1 1 1 1 2 2 2 1 1 0 0 0 0 0 0
1 1 0 0 0 0 0 0 0 0 0 0 0 0 0 0 0 0 0 0 0 0 0 0 0 1 0 0 0 0 1 3 4 4 4 3 2 1 0 0 0 0 0
1 2 1 0 0 0 0 0 0 0 0 0 0 0 0 0 0 0 0 0 0 0 0 0 0 0 0 0 0 0 1 3 5 5 5 4 3 2 1 1 0 0 0
1 2 2 1 0 0 0 0 0 0 0 0 0 0 0 0 0 0 0 0 0 0 0 0 0 0 0 0 0 0 0 2 3 4 5 5 4 3 3 2 1 1 1
1 2 2 1 0 1 1 1 0 0 0 0 0 0 0 0 0 0 0 0 0 0 0 0 0 0 0 0 0 0 0 1 1 2 3 3 3 3 3 3 3 2 2
3 2 2 1 0 2 2 1 1 1 0 0 0 0 0 0 0 0 0 0 0 0 0 0 0 0 0 0 0 0 0 0 0 1 1 1 1 2 2 2 2 2 2
4 3 2 1 0 1 2 2 2 1 0 0 0 0 0 0 0 0 0 0 0 0 0 0 0 0 0 0 0 0 0 0 0 0 0 0 0 1 1 1 1 1 1
3 2 1 0 0 1 1 1 1 1 0 0 0 0 0 0 0 0 0 0 0 0 0 0 0 0 0 0 0 0 0 0 0 0 0 0 0 0 0 0 0 0 0
2 1 0 0 1 1 1 1 0 0 0 0 0 0 0 0 0 0 0 0 0 0 0 0 0 0 0 0 0 0 0 0 0 0 0 0 0 0 0 0 0 0 0
2 1 0 0 0 0 1 1 0 0 0 0 0 0 0 0 0 0 0 0 0 0 0 0 0 0 0 0 0 0 0 0 0 0 0 0 0 0 0 0 0 0 0
1 1 1 1 1 1 0 0 0 0 0 0 0 0 0 0 0 0 0 0 0 0 0 0 0 0 0 0 0 0 0 0 0 0 0 0 0 0 0 0 0 0 0
4 4 3 2 2 1 1 1 0 0 0 0 0 1 1 0 0 0 0 0 0 0 0 0 0 0 0 0 0 0 0 0 0 0 0 0 0 0 0 0 0 0 0
6 6 5 3 1 1 0 0 0 0 0 0 0 1 1 0 0 0 0 0 0 0 0 0 0 0 0 0 0 0 0 0 0 0 0 0 0 0 0 0 0 0 0
5 5 4 2 1 0 0 0 0 0 0 0 0 1 1 0 0 0 0 0 0 0 0 0 0 0 0 0 0 0 0 0 0 0 0 0 0 0 0 0 0 0 0
3 3 2 1 1 0 0 0 0 0 0 0 0 0 0 0 0 0 0 0 0 0 0 0 0 0 0 0 0 0 0 0 0 0 0 0 0 0 0 0 0 0 0
2 1 0 0 0 0 0 0 0 0 0 0 0 0 0 0 0 0 0 0 0 0 0 0 0 0 0 0 0 0 0 0 0 0 0 0 0 0 0 0 0 0 0
1 0 0 0 0 0 0 0 0 0 0 0 0 0 0 0 0 0 0 0 0 0 0 0 0 0 0 0 0 0 0 0 0 0 0 0 0 0 0 0 0 0 0
0 0 0 0 0 0 0 0 0 0 0 0 0 0 0 0 0 0 0 0 0 0 0 0 0 0 0 0 0 0 0 0 0 0 0 0 0 0 0 0 0 0 0
0 0 0 0 0 0 0 0 0 0 0 0 0 0 0 0 0 0 0 0 0 0 0 0 0 0 0 0 0 0 0 0 0 0 0 0 0 0 0 0 0 0 0
Wind_Speed
4 3 2 2 2 1 2 2 2 1 1 1 2 4 5 5 5 4 4 11 11 11 11 11 10 10 9 9 8 8 8 8 8 8 8 7 7 7 7 6 6 6 5
5 4 3 3 2 2 2 2 3 2 1 1 2 4 5 5 5 5 4 7 11 11 11 11 11 10 10 10 9 9 8 8 8 8 7 7 7 7 7 6 6 5 5
5 4 4 3 3 2 2 2 1 1 1 1 1 2 3 5 5 5 5 3 5 9 11 11 11 10 10 10 10 10 9 8 8 8 8 7 7 7 6 6 6 5 4
6 5 4 3 3 2 2 2 1 1 1 1 1 1 2 3 5 5 5 4 4 4 8 11 11 10 11 11 11 11 10 10 9 9 8 8 7 7 6 6 6 5 4
6 5 4 3 3 2 2 2 1 2 1 1 1 1 1 2 3 5 5 6 5 5 4 8 11 11 12 12 12 11 11 11 10 10 10 9 9 8 7 6 6 5 5
6 5 3 4 3 3 2 2 2 1 1 2 1 0 1 2 2 3 5 5 5 6 6 6 6 8 12 12 12 12 12 12 11 11 11 10 10 9 8 7 7 6 5
6 5 4 4 3 3 3 3 2 2 1 1 1 1 2 1 2 3 3 4 5 6 6 6 5 4 5 11 11 12 13 13 12 12 11 10 10 9 8 8 7 6 6
5 5 5 4 4 3 3 3 3 2 1 2 3 1 1 3 2 2 2 4 4 4 5 7 6 6 4 3 6 12 12 13 12 12 11 10 9 9 8 8 7 6 6
5 4 5 4 4 4 3 3 3 4 2 2 2 4 3 3 2 3 2 2 3 3 4 4 6 6 6 4 4 8 11 10 11 11 11 10 9 9 9 9 8 7 6
5 5 5 5 4 4 4 4 4 3 4 2 2 2 3 4 2 2 2 2 2 2 3 4 5 5 6 5 6 8 10 10 11 11 10 10 10 10 9 9 9 8 7
3 5 5 5 5 4 4 4 3 4 3 4 3 2 1 1 2 3 2 2 1 1 2 3 3 3 4 5 5 7 10 10 10 10 10 9 9 10 10 9 9 8 7
2 4 4 4 4 4 5 4 4 4 4 4 3 3 3 2 3 3 3 3 2 2 1 1 2 3 3 3 6 8 9 9 9 9 9 8 8 8 9 9 9 8 7
2 4 4 4 4 4 4 4 4 4 4 4 4 3 3 4 3 3 3 2 2 2 1 1 2 2 2 2 3 6 6 8 8 8 8 8 7 8 8 7 7 6 6
4 4 4 4 4 4 4 4 3 4 4 4 5 4 3 4 3 3 3 3 2 2 1 2 1 1 1 1 3 5 4 7 8 8 8 7 7 7 7 7 6 6 5
3 3 4 4 3 3 3 3 3 4 3 4 4 4 4 3 3 3 3 4 4 3 3 2 1 1 1 1 3 3 3 6 7 7 7 7 7 7 7 7 7 7 6
3 3 3 3 2 2 2 2 2 2 3 3 2 3 3 2 2 2 2 2 3 4 3 2 2 1 1 2 4 3 3 7 7 8 8 8 8 9 8 8 7 7 6
2 2 2 2 2 2 2 2 2 1 2 2 2 2 3 2 2 2 2 2 2 2 3 2 1 1 2 2 3 3 3 3 4 8 8 9 9 9 8 8 8 7 6
2 2 2 2 2 2 2 2 2 1 2 2 2 2 3 2 2 2 1 2 2 2 3 3 1 1 2 3 3 4 4 4 4 7 9 9 9 9 8 8 7 7 6
3 2 2 2 2 2 2 1 1 1 1 1 2 2 2 2 2 1 1 1 1 2 2 3 2 1 1 2 3 4 5 3 4 6 8 8 8 9 8 8 8 7 6
3 2 2 2 2 2 1 1 1 1 1 0 0 0 0 1 2 1 1 2 2 2 2 3 3 2 2 2 3 4 3 2 3 3 4 5 6 7 8 8 8 7 6
3 3 3 2 1 1 1 1 1 2 1 1 1 1 1 2 2 1 1 1 2 2 2 3 3 2 2 3 3 3 4 3 2 2 2 2 2 2 3 5 6 6 6
3 3 3 2 2 1 2 2 2 2 2 2 1 1 2 2 3 3 3 3 3 3 3 3 2 3 3 3 3 4 4 4 2 1 2 2 2 2 1 1 3 5 5
3 3 2 3 2 1 2 3 3 2 2 1 1 1 1 2 2 1 3 4 3 4 5 5 4 3 4 5 6 5 5 4 3 3 3 2 1 1 1 2 4 4 4
3 3 3 2 2 1 3 4 4 3 2 2 1 1 1 1 2 2 3 3 3 2 2 3 3 3 4 4 6 6 6 5 3 2 3 3 1 1 1 1 3 4 3
3 2 2 2 2 1 2 3 4 2 2 1 1 2 2 1 3 4 4 3 3 2 4 5 5 5 5 6 6 5 5 5 3 1 1 2 2 1 1 0 1 4 4
3 3 2 2 2 1 2 4 4 2 2 1 2 2 3 3 3 3 3 3 2 1 2 3 4 4 3 3 5 5 6 5 3 2 2 3 2 3 1 1 1 1 2
Wind_Direction
162 163 166 170 177 168 169 170 171 176 177 166 156 147 143 145 153 157 167 171 170 169 168 168 168 168 169 169 169 169 168 166 166 167 166 163 159 157 156 155 155 154 152
165 166 170 179 190 189 179 175 175 172 168 157 153 150 151 158 161 164 170 177 179 179 180 180 180 180 180 179 179 180 180 179 176 175 175 176 175 174 172 171 169 168 167
166 164 168 179 195 193 177 163 164 137 149 140 152 166 160 166 168 172 174 177 183 190 191 191 191 191 190 189 189 189 189 187 183 182 182 183 185 186 186 184 183 183 178
164 160 168 182 188 170 158 155 150 131 114 132 183 201 178 167 176 179 179 183 185 192 200 201 199 199 199 199 197 197 196 193 191 190 191 192 193 192 190 188 186 184 187
163 162 172 181 171 157 165 179 155 151 157 192 208 200 195 186 182 186 188 192 195 197 197 206 206 205 207 207 204 204 203 202 199 199 200 200 198 194 193 193 193 193 197
167 161 167 172 164 153 166 166 158 164 175 188 195 140 221 219 202 198 198 197 201 203 201 207 209 214 215 213 210 209 208 208 206 205 204 204 202 199 197 197 198 199 201
169 164 164 168 167 168 181 175 156 166 191 141 90 13 340 285 233 222 208 197 204 207 202 206 208 211 218 219 217 214 213 211 209 206 205 206 206 202 199 200 201 200 201
175 172 165 169 172 171 181 178 155 158 204 160 138 117 342 334 308 251 220 210 210 201 206 209 209 211 217 214 218 219 219 217 211 207 206 206 204 200 197 195 194 193 193
181 174 172 174 182 176 185 190 175 171 192 219 170 154 164 226 285 308 269 231 212 204 211 206 206 209 210 212 215 220 221 220 214 211 208 204 200 197 196 197 196 194 191
183 179 173 179 188 185 189 199 188 182 174 203 222 204 184 171 177 284 313 289 237 223 220 215 212 207 208 206 206 207 216 216 213 211 208 204 198 196 197 198 199 194 188
194 187 183 185 191 193 198 202 193 190 184 193 200 197 201 203 184 182 251 287 315 278 229 217 211 207 204 200 205 207 207 206 209 205 200 198 194 193 194 195 192 188 184
205 203 194 195 198 199 202 204 202 201 202 202 204 192 183 190 201 192 215 235 251 276 275 243 224 218 210 198 203 198 202 197 198 197 192 188 187 183 183 185 186 184 184
204 212 201 202 204 204 204 199 201 211 205 204 212 217 211 213 194 186 193 218 233 253 274 281 246 224 213 193 195 185 185 181 182 184 184 183 180 173 171 171 171 174 176
204 204 197 201 206 204 211 206 209 219 212 214 226 223 223 227 208 197 195 191 222 251 246 249 306 250 220 182 169 168 166 167 175 175 174 172 166 159 155 152 152 150 146
198 194 193 199 204 203 206 201 213 225 219 218 228 230 232 236 218 214 205 191 189 216 239 228 223 266 197 159 165 162 156 157 160 155 152 149 147 146 143 141 136 132 129
182 172 184 191 200 202 195 190 207 216 207 222 222 230 241 245 230 219 211 210 198 195 220 222 209 199 162 152 141 139 137 137 139 139 138 136 133 132 133 130 127 129 130
170 169 179 185 189 189 183 181 205 205 213 235 239 232 242 237 231 233 225 215 207 184 202 232 204 148 141 141 117 111 113 116 125 129 132 132 131 131 129 128 129 128 125
160 160 151 152 163 164 166 171 203 217 215 231 243 240 251 243 234 236 226 222 214 191 180 198 200 154 131 143 128 123 117 116 111 116 120 122 122 123 126 128 124 123 123
140 131 132 142 151 145 143 159 174 189 203 228 244 237 248 228 240 244 221 220 219 190 164 170 192 179 121 131 118 111 103 92 108 113 115 117 123 125 121 122 125 127 125
140 137 134 141 136 128 132 145 155 162 149 121 295 203 227 199 212 214 217 218 192 163 153 158 169 156 125 122 127 124 113 96 104 109 109 115 123 129 129 129 131 135 136
121 124 118 105 97 115 126 124 125 129 122 91 50 53 70 84 95 134 163 185 177 171 165 166 164 137 138 143 158 143 136 119 84 90 98 98 110 106 126 141 141 141 143
110 106 109 101 78 66 81 105 113 108 110 115 102 59 56 47 55 66 80 103 138 155 161 157 165 166 174 169 152 152 144 141 155 176 126 104 101 113 126 135 148 148 144
109 107 107 98 85 53 82 99 101 112 112 109 110 99 77 59 51 52 62 68 78 110 137 154 163 182 178 181 165 159 162 155 159 168 138 129 118 128 187 163 163 163 158
111 111 105 106 100 80 98 98 92 96 90 85 89 108 109 52 58 78 79 67 57 54 109 135 157 169 169 170 172 167 160 135 97 109 128 138 155 177 185 138 180 182 183
107 112 108 103 101 69 91 108 102 100 86 63 55 68 98 86 74 88 93 87 66 39 63 87 98 100 112 133 144 134 133 135 134 161 151 133 146 126 81 267 218 207 209
116 107 91 86 94 81 105 120 109 112 104 81 54 58 73 94 100 109 115 118 113 86 80 66 62 59 73 105 130 157 162 157 143 158 181 142 139 127 112 308 245 218 219